Location: Baia Mare
(47.6567°N, 23.5850°E)
Time: 16:51:41
(UTC+03:00)

ISS - Pass Details

Date: 30 July 2018
Orbit: 402 x 408 km, 51.6° (Epoch: 21 July)

Event Time Altitude Azimuth Distance (km) Brightness Sun altitude
Rises 22:31:16 0° 290° (WNW) 2,323 1.2 -12.6°
Reaches altitude 10° 22:33:24 10° 296° (WNW) 1,463 0.2 -12.8°
Maximum altitude 22:36:35 47° 12° (NNE) 544 -3.0 -13.2°
Enters shadow 22:39:15 14° 85° (E) 1,259 -1.7 -13.5°
